1301616030414,56.2842
1301616090414,56.2103
1301616150414,56.3113
1301616210414,56.1237
1301616270414,56.2861
1301616330414,56.3305
1301616390414,56.3994
1301616450414,56.1442
1301616510414,56.3726
1301616570414,56.1049
1301616630414,56.3441
1301616690414,56.2693
1301616750414,56.2491
1301616810414,56.2176
1301616870414,56.2990
1301616930414,56.2421
1301616990414,56.3687
1301617050414,56.2892
1301617110414,56.2101
1301617170414,56.2486
1301617230414,56.3570
1301617290414,56.1820
1301617350414,56.3440
1301617410414,56.1773
1301617470414,56.1347
1301617530414,56.2724
1301617590414,56.3324
1301617650414,56.3065
1301617710414,56.3403
1301617770414,56.2876
1301617830414,56.2442
1301617890414,56.3234
1301617950414,56.3735
1301618010414,56.3034
1301618070414,56.1380
1301618130414,56.1444
1301618190414,56.1714
1301618250414,56.2329
1301618310414,56.1366
1301618370414,56.2345
1301618430414,56.1916
1301618490414,56.3291
1301618550414,56.1142
1301618610414,56.1973
1301618670414,56.1070
1301618730414,56.2969
1301618790414,56.1445
1301618850414,56.1787
1301618910414,56.0786
1301618970414,56.2522
1301619030414,56.2065
1301619090414,56.1774
1301619150414,56.1360
1301619210414,56.2573
1301619270414,56.2288
1301619330414,56.0347
1301619390414,56.2685
1301619450414,56.2248
1301619510414,56.2956
1301619570414,56.2423
1301619630426,56.1633
1301619690426,56.0411
1301619750426,56.1974
1301619810426,56.0365
1301619870426,56.1840
1301619930426,56.2187
1301619990426,56.1208
1301620050426,56.0777
1301620110426,56.1405
1301620170426,56.1433
1301620230426,56.2440
1301620290426,56.1678
1301620350426,56.1690
1301620410426,56.2071
1301620470426,56.0845
1301620530426,56.1397
1301620590426,56.1057
1301620650426,56.0557
1301620710426,56.1503
1301620770426,56.0940
1301620830426,56.0846
1301620890426,56.0730
1301620950426,56.0234
1301621010426,56.0696
1301621070426,56.0216
1301621130426,56.1169
1301621190426,56.0506
1301621250426,56.0920
1301621310426,56.0432
1301621370426,56.0110
1301621430426,56.1291
1301621490426,56.2012
1301621550426,56.2149
1301621610426,56.0214
1301621670426,56.0329
1301621730426,56.1174
1301621790426,56.1479
1301621850426,56.2124
1301621910426,56.2657
1301621970426,56.1532
1301622030426,56.1076
1301622090426,56.2671
1301622150426,56.1896
1301622210426,56.3144
1301622270426,56.1714
1301622330426,56.3093
1301622390426,56.2978
1301622450426,56.2741
1301622510426,56.3775
1301622570426,56.5625
1301622630426,56.6065
1301622690426,56.3803
1301622750426,56.4659
1301622810426,56.4072
1301622870426,56.4109
1301622930426,56.4119
1301622990426,56.3363
1301623050426,56.4960
1301623110426,56.2775
1301623170426,56.3776
1301623230439,56.4658
1301623290439,56.5245
1301623350439,56.4464
1301623410439,56.3527
1301623470439,56.2786
1301623530439,56.4170
1301623590439,56.2769
1301623650439,56.2513
1301623710439,56.3288
1301623770439,56.3723
1301623830439,56.4557
1301623890439,56.4219
1301623950439,56.3664
1301624010439,56.4426
1301624070439,56.3685
1301624130439,56.4039
1301624190439,56.4276
1301624250439,56.4317
1301624310439,56.6088
1301624370439,56.4198
1301624430439,56.4218
1301624490439,56.6438
1301624550439,56.7205
1301624610439,56.7188
1301624670439,56.6573
1301624730439,56.7942
1301624790439,56.8007
1301624850439,56.9858
1301624910439,57.0882
1301624970439,56.9894
1301625030439,57.2744
1301625090439,57.0029
1301625150439,57.1149
1301625210439,56.9957
1301625270439,56.8317
1301625330439,56.9398
1301625390439,56.9736
1301625450439,56.8093
1301625510439,56.7561
1301625570439,56.6652
1301625630439,56.5670
1301625690439,56.5668
1301625750439,56.6002
1301625810439,56.6842
1301625870439,56.5585
1301625930439,56.7714
1301625990439,56.8258
1301626050439,56.6796
1301626110439,56.7701
1301626170439,56.8374
1301626230439,56.5525
1301626290439,56.5086
1301626350439,56.6367
1301626410439,56.5851
1301626470439,56.5774
1301626530439,56.6235
1301626590439,56.6733
1301626650439,56.6519
1301626710439,56.6705
1301626770439,56.5600
1301626830451,56.4818
1301626890451,56.3845
1301626950451,56.6088
1301627010451,56.4103
1301627070451,56.6169
1301627130451,56.5532
1301627190451,56.5900
1301627250451,56.6398
1301627310451,56.5113
1301627370451,56.4359
1301627430451,56.6331
1301627490451,56.4844
1301627550451,56.6145
1301627610451,56.6654
1301627670451,56.5793
1301627730451,56.7360
1301627790451,56.6044
1301627850451,56.6789
1301627910451,56.6543
1301627970451,56.6406
1301628030451,56.6453
1301628090451,56.4299
1301628150451,56.5324
1301628210451,56.5914
1301628270451,56.7019
1301628330451,56.5169
1301628390451,56.5844
1301628450451,56.5864
1301628510451,56.5713
1301628570451,56.4798
1301628630451,56.6255
1301628690451,56.5133
1301628750451,56.6643
1301628810451,56.6124
1301628870451,56.5953
1301628930451,56.6764
1301628990451,56.4610
1301629050451,56.7587
1301629110451,56.5477
1301629170451,56.7062
1301629230451,56.4963
1301629290451,56.4078
1301629350451,56.7264
1301629410451,56.4166
1301629470451,56.5032
1301629530451,56.6414
1301629590451,56.5421
1301629650451,56.4520
1301629710451,56.6014
1301629770451,56.6073
1301629830451,56.6564
1301629890451,56.7230
1301629950451,56.6870
1301630010451,56.7484
1301630070451,56.8366
1301630130451,56.7972
1301630190451,56.8075
1301630250451,57.0390
1301630310451,56.8914
1301630370451,56.8743
1301630430463,56.9148
1301630490463,56.8422
1301630550463,56.6911
1301630610463,56.8720
1301630670463,56.7425
1301630730463,56.8627
1301630790463,56.8608
1301630850463,56.9180
1301630910463,56.7584
1301630970463,56.8449
1301631030463,56.8273
1301631090463,56.8310
1301631150463,56.7006
1301631210463,56.6757
1301631270463,56.6995
1301631330463,56.8444
1301631390463,56.7772
1301631450463,56.6869
1301631510463,56.7381
1301631570463,56.6976
1301631630463,56.7623
1301631690463,56.7033
1301631750463,56.6318
1301631810463,56.7014
1301631870463,56.7666
1301631930463,56.7491
1301631990463,56.6901
1301632050463,56.6194
1301632110463,56.5804
1301632170463,56.4897
1301632230463,56.7138
1301632290463,56.5249
1301632350463,56.5736
1301632410463,56.6328
1301632470463,56.7336
1301632530463,56.4922
1301632590463,56.5998
1301632650463,56.5226
1301632710463,56.6548
1301632770463,56.6088
1301632830463,56.5436
1301632890463,56.4618
1301632950463,56.6745
1301633010463,56.7126
1301633070463,56.5909
1301633130463,56.7026
1301633190463,56.6629
1301633250463,56.6460
1301633310463,56.4987
1301633370463,56.7844
1301633430463,56.6621
1301633490463,56.3746
1301633550463,56.5610
1301633610463,56.6383
1301633670463,56.5832
1301633730463,56.6307
1301633790463,56.8105
1301633850463,56.4240
1301633910463,56.6004
1301633970463,56.6362
1301634030475,56.6705
1301634090475,56.7718
1301634150475,56.6021
1301634210475,56.7104
1301634270475,56.6177
1301634330475,56.6659
1301634390475,56.6786
1301634450475,56.7123
1301634510475,56.7400
1301634570475,56.5233
1301634630475,56.6185
1301634690475,56.7459
1301634750475,56.5245
1301634810475,56.6807
1301634870475,56.6452
1301634930475,56.5758
1301634990475,56.5113
1301635050475,56.6384
1301635110475,56.5376
1301635170475,56.5798
1301635230475,56.5159
1301635290475,56.7358
1301635350475,56.5790
1301635410475,56.4742
1301635470475,56.5848
1301635530475,56.5831
1301635590475,56.6260
1301635650475,56.5868
1301635710475,56.6660
1301635770475,56.6475
1301635830475,56.6996
1301635890475,56.5495
1301635950475,56.6344
1301636010475,56.6964
1301636070475,56.6913
1301636130475,56.8183
1301636190475,56.8930
1301636250475,56.6693
1301636310475,56.6895
1301636370475,56.6654
1301636430475,56.6591
1301636490475,56.6424
1301636550475,56.6896
1301636610475,56.7209
1301636670475,56.8915
1301636730475,56.6518
1301636790475,56.6817
1301636850475,56.6364
1301636910475,56.8163
1301636970475,56.8121
1301637030475,56.6842
1301637090475,56.8790
1301637150475,56.8652
1301637210475,56.8346
1301637270475,56.7687
1301637330475,56.8452
1301637390475,56.6505
1301637450475,56.6343
1301637510475,56.8961
1301637570475,56.7352
1301637630487,56.9165
1301637690487,56.6708
1301637750487,56.7809
1301637810487,56.7980
1301637870487,56.7797
1301637930487,56.8585
1301637990487,56.8510
1301638050487,56.6264
1301638110487,56.8187
1301638170487,56.8681
1301638230487,56.7684
1301638290487,56.8181
1301638350487,56.7464
1301638410487,56.8570
1301638470487,56.6785
1301638530487,56.7538
1301638590487,56.7533
1301638650487,56.6721
1301638710487,56.0754
1301649870522,56.5235
1301649930522,56.7546
1301649990522,56.6544
1301650050522,56.7195
1301650110522,56.7014
1301650170522,56.5505
1301650230522,56.5742
1301650290522,56.7245
1301650350522,56.6500
1301650410522,56.7248
1301650470522,56.7485
1301650530522,56.6811
1301650590522,56.7272
1301650650522,56.6481
1301650710522,56.8151
1301650770522,56.6771
1301650830522,56.6237
1301650890522,56.7827
1301650950522,56.8539
1301651010522,56.7393
1301651070522,56.7127
1301651130522,56.7814
1301651190522,56.6881
1301651250522,56.7643
1301651310522,56.7016
1301651370522,56.8072
1301651430522,56.7477
1301651490522,56.7660
1301651550522,56.8049
1301651610522,56.7433
1301651670522,56.7814
1301651730522,56.7963
1301651790522,56.6179
1301651850522,56.7114
1301651910522,56.5926
1301651970522,56.6504
1301652030534,56.7348
1301652090534,56.6408
1301652150534,56.5446
1301652210534,56.7054
1301652270534,56.6179
1301652330534,56.6779
1301652390534,56.6998
1301652450534,56.6043
1301652510534,56.7029
1301652570534,56.8334
1301652630534,56.9190
1301652690534,56.6971
1301652750534,56.7091
1301652810534,56.8550
1301652870534,56.7483
1301652930534,56.7892
1301652990534,56.7991
1301653050534,56.8860
1301653110534,56.8809
1301653170534,57.1211
1301653230534,56.8623
1301653290534,56.7845
1301653350534,57.0417
1301653410534,56.9055
1301653470534,56.9450
1301653530534,56.8913
1301653590534,56.8956
1301653650534,57.0199
1301653710534,56.8541
1301653770534,57.0579
1301653830534,56.9819
1301653890534,56.9165
1301653950534,57.0140
1301654010534,56.9121
1301654070534,57.0248
1301654130534,57.0310
1301654190534,57.0227
1301654250534,57.1326
1301654310534,57.0248
1301654370534,56.9470
1301654430534,56.9597
1301654490534,57.1037
1301654550534,56.9645
1301654610534,57.0467
1301654670534,57.0425
1301654730534,56.9395
1301654790534,57.0076
1301654850534,56.9788
1301654910534,57.0650
1301654970534,57.0321
1301655030534,56.9873
1301655090534,57.2177
1301655150534,57.0910
1301655210534,57.0988
1301655270534,56.9588
1301655330534,57.1222
1301655390534,57.1472
1301655450534,57.1765
1301655510534,57.1395
1301655570534,57.0551
1301655630546,57.0572
1301655690546,57.0800
1301655750546,57.0972
1301655810546,57.1071
1301655870546,57.0493
1301655930546,57.1280
1301655990546,57.1197
1301656050546,57.4870
1301656110546,57.2104
1301656170546,57.2291
1301656230546,57.3570
1301656290546,57.2987
1301656350546,57.2270
1301656410546,57.1672
1301656470546,57.3911
1301656530546,57.3319
1301656590546,57.2741
1301656650546,57.2309
1301656710546,57.3353
1301656770546,57.4129
1301656830546,57.3345
1301656890546,57.3593
1301656950546,57.3469
1301657010546,57.3015
1301657070546,57.2930
1301657130546,57.2997
1301657190546,57.3564
1301657250546,57.5233
1301657310546,57.4337
1301657370546,57.2826
1301657430546,57.3991
1301657490546,57.4950
1301657550546,57.3028
1301657610546,57.3587
1301657670546,57.3951
1301657730546,57.3585
1301657790546,57.2798
1301657850546,57.4166
1301657910546,57.3789
1301657970546,57.5213
1301658030546,57.5430
1301658090546,57.5140
1301658150546,57.3843
1301658210546,57.5596
1301658270546,57.4592
1301658330546,57.3497
1301658390546,57.4775
1301658450546,57.4676
1301658510546,57.6392
1301658570546,57.5301
1301658630546,57.4832
1301658690546,57.6519
1301658750546,57.3851
1301658810546,57.6602
1301658870546,57.5581
1301658930546,57.5531
1301658990546,57.5487
1301659050546,57.5737
1301659110546,57.4819
1301659170546,57.6235
1301659230558,57.7060
1301659290558,57.5661
1301659350558,57.6049
1301659410558,57.6088
1301659470558,57.6308
1301659530558,57.6987
1301659590558,57.6965
1301659650558,57.7037
1301659710558,57.5177
1301659770558,57.5587
1301659830558,57.5095
1301659890558,57.4880
1301659950558,57.7890
1301660010558,57.5786
1301660070558,57.7310
1301660130558,57.7198
1301660190558,57.7046
1301660250558,57.5088
1301660310558,57.5758
1301660370558,57.6492
1301660430558,57.5888
1301660490558,57.6466
1301660550558,57.5986
1301660610558,57.3759
1301660670558,57.5976
1301660730558,57.4928
1301660790558,57.4985
1301660850558,57.7009
1301660910558,57.7195
1301660970558,57.6199
1301661030558,57.6381
1301661090558,57.6664
1301661150558,57.7395
1301661210558,57.4972
1301661270558,57.5448
1301661330558,57.5184
1301661390558,57.5546
1301661450558,57.6740
1301661510558,57.7933
1301661570558,57.6336
1301661630558,57.6569
1301661690558,57.6434
1301661750558,57.5772
1301661810558,57.6986
1301661870558,57.6377
1301661930558,57.5844
1301661990558,57.6657
1301662050558,57.3587
1301662110558,57.5225
1301662170558,57.5617
1301662230558,57.6576
1301662290558,57.7565
1301662350558,57.4714
1301662410558,57.4813
1301662470558,57.5921
1301662530558,57.5632
1301662590558,57.7295
1301662650558,57.5807
1301662710558,57.5730
1301662770558,57.5307
1301662830583,57.6545
1301662890583,57.5277
1301662950583,57.5466
1301663010583,57.4814
1301663070583,57.5559
1301663130583,57.5112
1301663190583,57.4895
1301663250583,57.4551
1301663310583,57.4849
1301663370583,57.4913
1301663430583,57.5872
1301663490583,57.5233
1301663550583,57.5774
1301663610583,57.4129
1301663670583,57.5570
1301663730583,57.3833
1301663790583,57.4248
1301663850583,57.5949
1301663910583,57.6032
1301663970583,57.4625
1301664030583,57.4292
1301664090583,57.5834
1301664150583,57.5332
1301664210583,57.5329
1301664270583,57.3588
1301664330583,57.5728
1301664390583,57.4646
1301664450583,57.5199
1301664510583,57.5258
1301664570583,57.5578
1301664630583,57.4944
1301664690583,57.2685
1301664750583,57.2811
1301664810583,57.3539
1301664870583,57.3758
1301664930583,57.3572
1301664990583,57.3159
1301665050583,57.2870
1301665110583,57.3419
1301665170583,57.4999
1301665230583,57.4052
1301665290583,57.3788
1301665350583,57.3361
1301665410583,57.4551
1301665470583,57.6344
1301665530583,57.4207
1301665590583,57.4293
1301665650583,57.5152
1301665710583,57.3478
1301665770583,57.4366
1301665830583,57.5033
1301665890583,57.2827
1301665950583,57.3672
1301666010583,57.3814
1301666070583,57.5113
1301666130583,57.3679
1301666190583,57.3081
1301666250583,57.2744
1301666310583,57.3081
1301666370583,57.4595
1301666430595,57.1915
1301666490595,57.4109
1301666550595,57.4834
1301666610595,57.4195
1301666670595,57.3484
1301666730595,57.3175
1301666790595,57.5125
1301666850595,57.4169
1301666910595,57.4534
1301666970595,57.5249
1301667030595,57.3639
1301667090595,57.4408
1301667150595,57.4433
1301667210595,57.5468
1301667270595,57.4521
1301667330595,57.4862
1301667390595,57.4913
1301667450595,57.4580
1301667510595,57.4514
1301667570595,57.3295
1301667630595,57.4361
1301667690595,57.5328
1301667750595,57.3763
1301667810595,57.5262
1301667870595,57.5194
1301667930595,57.5780
1301667990595,57.5763
1301668050595,57.4688
1301668110595,57.6036
1301668170595,57.5110
1301668230595,57.5880
1301668290595,57.4740
1301668350595,57.3834
1301668410595,57.5169
1301668470595,57.6476
1301668530595,57.6034
1301668590595,57.5442
1301668650595,57.6712
1301668710595,57.5136
1301668770595,57.5998
1301668830595,57.5913
1301668890595,57.5567
1301668950595,57.6992
1301669010595,57.5920
1301669070595,57.5595
1301669130595,57.4311
1301669190595,57.6967
1301669250595,57.4406
1301669310595,57.5738
1301669370595,57.3486
1301669430595,57.5615
1301669490595,57.5823
1301669550595,57.3949
1301669610595,57.5746
1301669670595,57.4999
1301669730595,57.4883
1301669790595,57.5696
1301669850595,57.5325
1301669910595,57.6834
1301669970595,57.6458
1301670030608,57.6390
1301670090607,57.6919
1301670150607,57.6813
1301670210607,57.7298
1301670270607,57.7309
1301670330607,57.6110
1301670390607,57.6470
1301670450607,57.7613
1301670510607,57.6692
1301670570607,57.6378
1301670630607,57.6201
1301670690607,57.6506
1301670750607,57.5948
1301670810607,57.6254
1301670870607,57.7056
1301670930607,57.6651
1301670990607,57.6660
1301671050607,57.7072
1301671110607,57.8378
1301671170607,57.6856
1301671230607,57.5215
1301671290608,57.6309
1301671350608,57.6706
1301671410607,57.6433
1301671470607,57.5833
1301671530607,57.7863
1301671590607,57.6293
1301671650607,57.5766
1301671710607,57.8398
1301671770607,57.5503
1301671830607,57.6093
1301671890607,57.6421
1301671950607,57.6576
1301672010607,57.6996
1301672070607,57.7284
1301672130607,57.6799
1301672190607,57.5708
1301672250607,57.5868
1301672310607,57.4622
1301672370607,57.5877
1301672430607,57.5882
1301672490607,57.6020
1301672550607,57.4221
1301672610607,57.4649
1301672670608,57.5457
1301672730608,57.5048
1301672790607,57.5483
1301672850607,57.3167
1301672910607,57.5842
1301672970607,57.6270
1301673030607,57.5862
1301673090607,57.4490
1301673150607,57.5681
1301673210607,57.6438
1301673270607,57.4989
1301673330607,57.6049
1301673390607,57.4094
1301673450607,57.4408
1301673510607,57.4857
1301673570607,57.5188
1301673630619,57.4694
1301673690619,57.6032
1301673750619,57.4411
1301673810619,57.4298
1301673870619,57.3988
1301673930619,57.5750
1301673990619,57.6102
1301674050619,57.5432
1301674110619,57.6029
1301674170619,57.5625
1301674230619,57.6600
1301674290619,57.5252
1301674350619,57.5863
1301674410619,57.6294
1301674470619,57.5804
1301674530619,57.6213
1301674590619,57.4512
1301674650619,57.4852
1301674710619,57.3852
1301674770619,57.5045
1301674830619,57.4774
1301674890619,57.6342
1301674950619,57.5789
1301675010619,57.5077
1301675070619,57.5958
1301675130619,57.4958
1301675190619,57.5614
1301675250619,57.5368
1301675310619,57.5263
1301675370619,57.7222
1301675430619,57.3848
1301675490619,57.5451
1301675550619,57.4293
1301675610619,57.5882
1301675670619,57.4508
1301675730619,57.5778
1301675790619,57.5803
1301675850619,57.5579
1301675910619,57.5806
1301675970619,57.5572
1301676030619,57.6006
1301676090619,57.4006
1301676150619,57.4445
1301676210619,57.5443
1301676270619,57.4952
1301676330619,57.4775
1301676390619,57.4364
1301676450619,57.5956
1301676510619,57.6401
1301676570619,57.4629
1301676630619,57.7166
1301676690619,57.6402
1301676750619,57.5464
1301676810619,57.4605
1301676870619,57.4812
1301676930619,57.5760
1301676990619,57.5313
1301677050619,57.5790
1301677110619,57.3962
1301677170619,57.5763
1301677230631,57.4620
1301677290631,57.7268
1301677350631,57.4464
1301677410631,57.5450
1301677470631,57.6646
1301677530631,57.4984
1301677590631,57.6708
1301677650631,57.5391
1301677710631,57.5413
1301677770631,57.4253
1301677830631,57.5082
1301677890631,57.5851
1301677950631,57.5985
1301678010631,57.5291
1301678070631,57.5297
1301678130631,57.6376
1301678190631,57.6308
1301678250631,57.6082
1301678310631,57.5376
1301678370631,57.5425
1301678430631,57.6254
1301678490631,57.7623
1301678550631,57.7421
1301678610631,57.7270
1301678670631,57.6716
1301678730631,57.5876
1301678790631,57.7192
1301678850631,57.5348
1301678910631,57.6492
1301678970631,57.6362
1301679030631,57.5943
1301679090631,57.6508
1301679150631,57.3837
1301679210631,57.5895
1301679270631,57.5773
1301679330631,57.5589
1301679390631,57.5560
1301679450631,57.6623
1301679510631,57.5349
1301679570631,57.5773
1301679630631,57.6070
1301679690631,57.6210
1301679750631,57.5656
1301679810631,57.5041
1301679870631,57.4904
1301679930631,57.5948
1301679990631,57.5164
1301680050631,57.5104
1301680110631,57.7146
1301680170631,57.5958
1301680230631,57.7171
1301680290631,57.5381
1301680350631,57.5357
1301680410631,57.4224
1301680470631,57.5780
1301680530631,57.4710
1301680590631,57.5485
1301680650631,57.5428
1301680710631,57.5038
1301680770631,57.7502
1301680830643,57.5134
1301680890643,57.5728
1301680950643,57.5730
1301681010643,57.6651
1301681070643,57.7212
1301681130643,57.7592
1301681190643,57.6528
1301681250643,57.5425
1301681310643,57.5743
1301681370643,57.4949
1301681430643,57.5524
1301681490643,57.7462
1301681550643,57.5074
1301681610643,57.5801
1301681670643,57.7160
1301681730643,57.6085
1301681790643,57.5831
1301681850643,57.5913
1301681910643,57.5924
1301681970643,57.6024
1301682030643,57.5917
1301682090643,57.5829
1301682150643,57.6256
1301682210643,57.6970
1301682270643,57.5577
1301682330643,57.5690
1301682390643,57.5778
1301682450643,57.7121
1301682510643,57.4999
1301682570643,57.6299
1301682630643,57.7523
1301682690643,57.5277
1301682750643,57.7971
1301682810643,57.6422
1301682870643,57.5382
1301682930643,57.6185
1301682990643,57.7429
1301683050643,57.5933
1301683110643,57.4636
1301683170643,57.5927
1301683230643,57.4736
1301683290643,57.4441
1301683350643,57.5755
1301683410643,57.5048
1301683470643,57.6958
1301683530643,57.5399
1301683590643,57.5882
1301683650643,57.3013
1301683710643,57.5584
1301683770643,57.4681
1301683830643,57.4852
1301683890643,57.5295
1301683950643,57.6546
1301684010643,57.5603
1301684070643,57.3732
1301684130643,57.5268
1301684190643,57.5970
1301684250643,57.3857
1301684310643,57.5620
1301684370643,57.5815
1301684430655,57.4785
1301684490655,57.4367
1301684550655,57.4380
1301684610655,57.4590
1301684670655,57.5619
1301684730655,57.3504
1301684790655,57.4944
1301684850655,57.5069
1301684910655,57.5019
1301684970655,57.4718
1301685030655,57.5018
1301685090655,57.4982
1301685150655,57.3768
1301685210655,57.5334
1301685270655,57.4932
1301685330655,57.4791
1301685390655,57.5485
1301685450655,57.5282
1301685510655,57.4053
1301685570655,57.5146
1301685630655,57.4332
1301685690655,57.3603
1301685750655,57.4510
1301685810655,57.3814
1301685870655,57.4388
1301685930655,57.4249
1301685990655,57.4668
1301686050655,57.3036
1301686110655,57.5399
1301686170655,57.4338
1301686230655,57.3576
1301686290655,57.4813
1301686350655,57.3927
1301686410655,57.5542
1301686470655,57.5174
1301686530655,57.4957
1301686590655,57.3403
1301686650655,57.4575
1301686710655,57.3398
1301686770655,57.4296
1301686830655,57.2077
1301686890655,57.5250
1301686950655,57.4569
1301687010655,57.5942
1301687070655,57.5066
1301687130655,57.4211
1301687190655,57.5536
1301687250655,57.5070
1301687310655,57.4823
1301687370655,57.5520
1301687430655,57.4505
1301687490655,57.5335
1301687550655,57.6054
1301687610655,57.6011
1301687670655,57.5561
1301687730655,57.4930
1301687790655,57.4779
1301687850655,57.5357
1301687910655,57.5711
1301687970655,57.5472
1301688030667,57.5870
1301688090667,57.5825
1301688150667,57.4665
1301688210667,57.6145
1301688270667,57.5932
1301688330667,57.6615
1301688390667,57.6308
1301688450667,57.6309
1301688510667,57.4788
1301688570667,57.4463
1301688630667,57.6408
1301688690667,57.4606
1301688750667,57.4882
1301688810667,57.6105
1301688870667,57.5652
1301688930667,57.6847
1301688990667,57.6179
1301689050667,57.6305
1301689110667,57.6424
1301689170667,57.4149
1301689230667,57.5467
1301689290667,57.6550
1301689350667,57.4213
1301689410667,57.7390
1301689470667,57.6720
1301689530667,57.5418
1301689590667,57.4691
1301689650667,57.5626
1301689710667,57.5616
1301689770667,57.5762
1301689830667,57.6086
1301689890667,57.7751
1301689950667,57.6991
1301690010667,57.6723
1301690070667,57.7204
1301690130667,57.6695
1301690190667,57.6358
1301690250667,57.5760
1301690310667,57.6333
1301690370667,57.7469
1301690430667,57.6415
1301690490667,57.8640
1301690550667,57.7020
1301690610667,57.8296
1301690670667,57.7512
1301690730667,57.7721
1301690790667,57.7469
1301690850667,57.8646
1301690910667,57.6402
1301690970667,57.8058
1301691030667,57.6661
1301691090667,57.7194
1301691150667,57.8408
1301691210667,57.7512
1301691270667,57.6271
1301691330667,57.7698
1301691390667,57.7621
1301691450667,57.7823
1301691510667,57.6874
1301691570667,57.6302
1301691630679,57.9241
1301691690679,57.7189
1301691750679,57.8692
1301691810679,57.8096
1301691870679,57.8167
1301691930679,57.7409
1301691990679,57.6811
1301692050679,57.8235
1301692110679,57.8390
1301692170679,57.6812
1301692230679,57.6616
1301692290679,57.8571
1301692830679,57.7299
1301692890679,57.5490
1301692950679,57.7012